STARLINK-3374, 51112

Orbit data source: Space-Track

STARLINK-3374, 51112 is a payload satellite owned by SpaceX/Seattle (US) in LEO that was launched on Wed, 19 Jan 2022 UTC via an FALCON 9 launch vehicle from the Air Force Eastern Test Range (AFETR). Payload-class satellites include a variety of spacecraft equipped with specific instruments for various scientific and technological missions. These include communications satellites like Starlink; space stations such as the ISS; scientific satellites like the Hubble; Earth observation satellites from companies like Planet Labs, Umbra, and HawkEye 360; GPS; miniature CubeSats for education and research; and military/defense satellites.

Loading next visibility...
Identifier
51112, 2022-005J
Orbit
LEO
Country
Flag of USUS
Related business
Manufacturer
SpaceX/Seattle
Mission
Operational Commercial Communications
Bus & Motor
STARLINK, Unknown motor
Mass
297 kg wet, ~275 kg dry
Launch date (UTC)
2022-01-19 (4 years ago)
Launch vehicle
FALCON 9
Launch site
Air Force Eastern Test Range (AFETR)
Object type
Payload
Rocket body
Debris
Shape & HBR
Box + 1 Pan, 10.1 m
Radar Cross Section
13.562 m², Large (>1 m²)

Expand to show TLE details & history
Last TLE update: 12 hours ago

TLE from 12 hours ago
0 STARLINK-3374
1 51112U 22005J   26094.19874775 -.00000916  00000-0 -39451-4 0  9992
2 51112  53.2173 174.5793 0001244  81.6376 278.4758 15.08838697232734
Epoch: 2026-04-04T04:46Z
TLE epoch observation values (Epoch: 2026-04-04T04:46:11.805Z)
Latitude
0.00004°
Longitude
-89.49182°
Altitude
540.518 km
Speed
7.593 km/s
True Right ascension
11h 38m 19s
True Declination
0° 00' 00"
Sunlit
Object was in full shadow at epoch
Visualization orbit readout
Latitude
Unknown
Longitude
Unknown
Altitude
Unknown
Speed
Unknown
Apparent Right ascension
Unknown
Apparent Declination
Unknown
Sunlit
N/A
Visualization observer readout
Local Sidereal Time
22:29:40
Azimuth
Unknown
Elevation
Unknown
Doppler factor
Unknown
Orbital elements
Apogee altitude
540.853 km
Perigee altitude
539.132 km
Semi-major axis
6,918.129 km
Eccentricity
0.00012
Inclination
53.2173°
RAAN
174.5793°
Arg. of periapsis
81.6376°
True anomaly
278.4617°
Mean anomaly
278.4758°
Eccentric anomaly
278.46875°
Mean motion
3.7719 °/min
Orbital period
95.44 mins
BSTAR
-0.000039451
Loading maneuver chart data...
Computing Atmospheric mass density...
Loading historical data...
Loading historical data...
Loading historical data...
Loading historical data...
Loading historical data...
Loading historical data...
Loading historical data...

Documentation

Showing up to 5 results
|